Location: Bremen
(53.0793°N, 8.8017°E)
Time: 22:30:37
(UTC+02:00)

Vanguard 2 Rocket - Pass Details

Date: 22 April 2024
Orbit: 556 x 3304 km, 32.9° (Epoch: 20 May)

Event Time Altitude Azimuth Distance (km) Brightness Sun altitude
Rises 05:27:12 0° 272° (W) 7,274 11.0 -6.5°
Reaches altitude 10° 05:37:28 10° 248° (WSW) 5,952 10.4 -5.2°
Maximum altitude 05:42:25 12° 231° (SW) 5,537 10.2 -4.5°
Drops below altitude 10° 05:46:59 10° 215° (SW) 5,373 10.3 -3.9°
Sets 05:54:50 0° 187° (S) 5,698 10.6 -2.9°
